Change the Weather History Date:

Tuesday, June 3, 2014

  Actual Average Record
Temperature  
Mean Temperature 79 °F 68 °F  
Max Temperature 88 °F 78 °F 99 °F (1895)
Min Temperature 70 °F 58 °F 41 °F (1929)
Degree Days  
Heating Degree Days 0 2  
Month to date heating degree days 0 6  
Since 1 June heating degree days 0 6  
Since 1 July heating degree days 5633 5233  
Cooling Degree Days 14 5  
Month to date cooling degree days 36 14  
Year to date cooling degree days 191 96  
Since 1 June cooling degree days 36 14  
Growing Degree Days 30 (Base 50)    
Moisture  
Dew Point 64 °F    
Average Humidity 59    
Maximum Humidity 84    
Minimum Humidity 34    
Precipitation  
Precipitation 0.14 in 0.14 in 2.66 in (1941)
Month to date precipitation 0.50 0.43  
Year to date precipitation 17.35 16.00  
Snow  
Snow 0.00 in 0.00 in 0.00 in ()
Month to date snowfall 0.0 0.0  
Since 1 June snowfall 0.0 0.0  
Since 1 July snowfall 56.4 26.7  
Snow Depth 0.00 in    
Sea Level Pressure  
Sea Level Pressure 29.94 in    
Wind  
Wind Speed 10 mph (WSW)    
Max Wind Speed 20 mph    
Max Gust Speed 25 mph    
Visibility 9 miles    
Events Rain    
T = Trace of Precipitation, MM = Missing Value Source: NWS Daily Summary

Daily Weather History Graph

Daily Weather History Graph

Search for Another Location

Airport or City:

Trip Planner

Search our weather history database for the weather conditions in past years. The results will help you decide how hot, cold, wet, or windy it might be!

Date:

Astronomy

Jun. 03, 2014 Rise Set
Actual Time 6:04 AM EDT 8:55 PM EDT
Civil Twilight 5:31 AM EDT 9:28 PM EDT
Nautical Twilight 4:51 AM EDT 10:08 PM EDT
Astronomical Twilight 4:04 AM EDT 10:55 PM EDT
Moon 11:26 AM EDT (6/3) 12:23 AM EDT (6/3)
Length of Visible Light 15h 56m
Length of Day
14h 51m
Waxing Crescent, 30% of the Moon is Illuminated
Jun 3
Waxing Crescent
Jun 5
First Quarter
Jun 13
Full
Jun 19
Last Quarter
Jun 27
New

Hourly Weather History & Observations

Time (EDT) Temp. Heat Index Dew Point Humidity Pressure Visibility Wind Dir Wind Speed Gust Speed Precip Events Conditions
12:51 AM 73.0 °F - 64.9 °F 76% 29.97 in 10.0 mi South 9.2 mph - 0.00 in Rain Light Rain
1:51 AM 72.0 °F - 66.0 °F 81% 29.96 in 9.0 mi SSW 10.4 mph - 0.03 in Rain Light Rain
2:43 AM 71.6 °F - 66.2 °F 83% 29.97 in 5.0 mi SSW 10.4 mph - 0.07 in Rain Light Rain
2:48 AM 71.6 °F - 66.2 °F 83% 29.97 in 6.0 mi SSW 13.8 mph - 0.07 in Rain Light Rain
2:49 AM 71.1 °F - 66.0 °F 84% 29.95 in 6.0 mi SSW 10.4 mph - 0.07 in Rain Light Rain
3:51 AM 71.1 °F - 66.9 °F 87% 29.95 in 10.0 mi SW 9.2 mph - 0.01 in   Overcast
4:03 AM 71.6 °F - 66.2 °F 83% 29.96 in 10.0 mi SW 9.2 mph - N/A   Overcast
4:19 AM 71.6 °F - 66.2 °F 83% 29.97 in 10.0 mi SW 10.4 mph - N/A   Overcast
4:51 AM 72.0 °F - 66.9 °F 84% 29.95 in 10.0 mi SW 9.2 mph - N/A   Overcast
5:43 AM 71.6 °F - 66.2 °F 83% 29.97 in 8.0 mi SW 6.9 mph - N/A   Overcast
5:51 AM 72.0 °F - 66.9 °F 84% 29.95 in 8.0 mi SW 8.1 mph - N/A   Overcast
6:26 AM 71.6 °F - 66.2 °F 83% 29.98 in 6.0 mi SSW 4.6 mph - N/A   Mostly Cloudy
6:51 AM 72.0 °F - 66.9 °F 84% 29.96 in 6.0 mi SW 4.6 mph - N/A   Haze
7:08 AM 71.6 °F - 66.2 °F 83% 29.99 in 6.0 mi SW 5.8 mph - N/A   Haze
7:41 AM 73.4 °F - 66.2 °F 78% 29.99 in 7.0 mi WSW 8.1 mph - N/A   Overcast
7:51 AM 73.0 °F - 66.9 °F 81% 29.97 in 7.0 mi SW 8.1 mph - N/A   Overcast
8:51 AM 73.9 °F - 66.9 °F 79% 29.97 in 7.0 mi SW 10.4 mph - N/A   Overcast
9:51 AM 75.9 °F - 66.9 °F 74% 29.97 in 8.0 mi SW 11.5 mph - N/A   Mostly Cloudy
10:40 AM 78.8 °F - 66.2 °F 65% 29.98 in 9.0 mi WSW 9.2 mph - N/A   Mostly Cloudy
10:51 AM 80.1 °F 82.7 °F 68.0 °F 67% 29.96 in 9.0 mi West 11.5 mph 18.4 mph N/A   Mostly Cloudy
11:51 AM 82.9 °F 85.0 °F 66.0 °F 56% 29.95 in 10.0 mi SW 15.0 mph - N/A   Scattered Clouds
1:51 PM 84.0 °F 86.5 °F 66.9 °F 56% 29.92 in 10.0 mi WSW 12.7 mph - 0.02 in   Scattered Clouds
2:51 PM 86.0 °F 87.6 °F 64.9 °F 49% 29.91 in 10.0 mi WSW 10.4 mph - N/A   Scattered Clouds
3:51 PM 86.0 °F 86.1 °F 61.0 °F 43% 29.89 in 10.0 mi West 13.8 mph - N/A   Scattered Clouds
4:51 PM 87.1 °F 87.0 °F 61.0 °F 41% 29.88 in 9.0 mi West 15.0 mph - N/A   Overcast
5:51 PM 88.0 °F 87.1 °F 59.0 °F 37% 29.87 in 10.0 mi West 13.8 mph - N/A   Mostly Cloudy
6:51 PM 84.9 °F 85.9 °F 63.0 °F 48% 29.86 in 10.0 mi WSW 11.5 mph - N/A   Mostly Cloudy
7:51 PM 84.0 °F 82.6 °F 54.0 °F 35% 29.88 in 10.0 mi WNW 17.3 mph - N/A   Partly Cloudy
8:51 PM 81.0 °F 80.7 °F 55.0 °F 41% 29.88 in 10.0 mi WNW 9.2 mph - N/A   Partly Cloudy
9:51 PM 78.1 °F - 55.0 °F 45% 29.89 in 10.0 mi West 5.8 mph - N/A   Partly Cloudy
10:51 PM 75.9 °F - 55.9 °F 50% 29.90 in 10.0 mi NNW 8.1 mph - N/A   Partly Cloudy
11:51 PM 73.0 °F - 55.9 °F 55% 29.90 in 10.0 mi Calm Calm - N/A   Scattered Clouds